This demonstration page uses our WeatherBlox Daily Observations layout. Learn more.

Left ArrowRight Arrow

Hourly Observations for August 28, 2019

Temp ( °F °C ) Dew Point ( °F °C ) Humidity (%) Winds ( mph kmh ) Pressure ( in mb ) Visibility ( mi km ) Precip ( " mm )
12:15 am 00:15 Clear 65 18.2 64 18 99 99 W 7 11 29.94 1014 10 16 0.00 0.00
12:35 am 00:35 Clear 64 17.8 64 17.8 100 100 W 6 9 29.94 1014 10 16 0.00 0.00
12:55 am 00:55 Clear 63 17.4 63 17.4 100 100 W 6 9 29.95 1014 10 16 0.00 0.00
1:15 am 01:15 Clear 63 17.2 63 17.2 100 100 W 6 9 29.95 1014 10 16 0.00 0.00
1:35 am 01:35 Clear 63 17 63 17 100 100 W 6 9 29.95 1014 10 16 0.00 0.00
1:55 am 01:55 Clear 62 16.5 62 16.5 100 100 W 5 7 29.95 1014 10 16 0.00 0.00
2:15 am 02:15 Clear 62 16.5 62 16.5 100 100 W 5 7 29.95 1014 10 16 0.00 0.00
2:35 am 02:35 Clear 61 16 61 16 100 100 W 5 7 29.95 1014 10 16 0.00 0.00
2:55 am 02:55 Clear 60 15.5 60 15.5 100 100 W 3 6 29.95 1014 10 16 0.00 0.00
3:15 am 03:15 Clear 60 15.4 60 15.4 100 100 W 5 7 29.95 1014 10 16 0.00 0.00
3:35 am 03:35 Clear 59 15.2 59 15.2 100 100 W 5 7 29.94 1014 10 16 0.00 0.00
3:55 am 03:55 Clear 59 15 59 15 100 100 W 6 9 29.94 1014 10 16 0.00 0.00
4:15 am 04:15 Clear 59 15.2 59 15.2 100 100 W 6 9 29.94 1014 10 16 0.00 0.00
4:35 am 04:35 Clear 59 15.1 59 15.1 100 100 W 5 7 29.95 1014 10 16 0.00 0.00
4:50 am 04:50 Clear 58 14.6 58 14.6 100 100 WSW 5 7 29.95 1014 10 16 0.00 0.00
5:15 am 05:15 Clear 58 14.3 58 14.3 100 100 WSW 3 6 29.96 1014 10 16 0.00 0.00
5:35 am 05:35 Clear 57 13.9 57 13.9 100 100 W 5 7 29.96 1014 10 16 0.00 0.00
5:55 am 05:55 Clear 57 14 57 14 100 100 W 5 7 29.97 1015 10 16 0.00 0.00
6:15 am 06:15 Clear 57 13.9 57 13.9 100 100 W 7 11 29.97 1015 10 16 0.00 0.00
6:35 am 06:35 Clear 57 14 57 14 100 100 W 6 9 29.98 1015 10 16 0.00 0.00
6:55 am 06:55 Clear 57 14 57 14 100 100 W 7 11 29.99 1015 10 16 0.00 0.00
7:15 am 07:15 Sunny 57 14 57 14 100 100 W 6 9 29.99 1015 10 16 0.00 0.00
7:35 am 07:35 Sunny 57 14 57 14 100 100 W 6 9 30.00 1016 10 16 0.00 0.00
7:55 am 07:55 Sunny 58 14.5 58 14.3 99 99 W 5 7 30.00 1016 10 16 0.00 0.00
8:15 am 08:15 Sunny 59 15 58 14.7 98 98 WSW 6 9 30.00 1016 10 16 0.00 0.00
8:35 am 08:35 Sunny 60 15.5 59 14.9 96 96 WSW 6 9 30.01 1016 10 16 0.00 0.00
8:55 am 08:55 Sunny 62 16.4 59 15 91 91 W 6 9 30.01 1016 10 16 0.00 0.00
9:15 am 09:15 Sunny 63 17.2 59 14.9 86 86 W 7 11 30.01 1016 10 16 0.00 0.00
9:35 am 09:35 Sunny 64 17.9 58 14.3 80 80 W 8 13 30.01 1016 10 16 0.00 0.00
9:55 am 09:55 Sunny 65 18.6 57 13.8 74 74 WNW 8 13 30.01 1016 10 16 0.00 0.00
10:15 am 10:15 Sunny 67 19.2 56 13.6 70 70 WNW 7 11 30.01 1016 10 16 0.00 0.00
10:35 am 10:35 Sunny 68 20 56 13.5 66 66 WNW 9 15 30.01 1016 10 16 0.00 0.00
10:55 am 10:55 Sunny 69 20.4 57 14 67 67 W 8 13 30.02 1016 10 16 0.00 0.00
11:15 am 11:15 Sunny 70 21.1 58 14.6 67 67 W 10 17 30.01 1016 10 16 0.00 0.00
11:35 am 11:35 Sunny 70 21.2 57 13.9 63 63 W 13 20 30.01 1016 10 16 0.00 0.00
11:55 am 11:55 Sunny 71 21.6 57 13.8 61 61 WNW 12 19 30.01 1016 10 16 0.00 0.00
12:15 pm 12:15 Sunny 71 21.6 56 13.4 60 60 W 17 28 30.01 1016 10 16 0.00 0.00
12:35 pm 12:35 Sunny 72 22 55 12.9 56 56 W 12 19 30.01 1016 10 16 0.00 0.00
12:55 pm 12:55 Sunny 72 22.4 55 12.6 54 54 W 12 19 30.00 1016 10 16 0.00 0.00
1:15 pm 13:15 Sunny 73 22.6 54 12.3 52 52 W 18 30 30.00 1016 10 16 0.00 0.00
1:35 pm 13:35 Sunny 72 22.4 51 10.7 48 48 W 18 30 30.00 1016 10 16 0.00 0.00
1:55 pm 13:55 Sunny 73 23 54 12.3 51 51 W 13 20 30.00 1016 10 16 0.00 0.00
2:15 pm 14:15 Partly Cloudy 74 23.1 56 13.1 53 53 W 9 15 30.00 1016 10 16 0.00 0.00
2:35 pm 14:35 Partly Cloudy 74 23.2 55 12.8 52 52 W 20 31 30.00 1016 10 16 0.00 0.00
2:55 pm 14:55 Partly Cloudy 74 23.1 55 12.8 52 52 W 15 24 30.00 1016 10 16 0.00 0.00
3:15 pm 15:15 Partly Cloudy 74 23.1 54 12.2 50 50 WSW 13 20 29.99 1015 10 16 0.00 0.00
3:35 pm 15:35 Partly Cloudy 74 23.1 55 12.7 52 52 W 18 30 29.99 1015 10 16 0.00 0.00
3:55 pm 15:55 Partly Cloudy 73 23 55 12.6 52 52 WNW 13 20 29.99 1015 10 16 0.00 0.00
4:15 pm 16:15 Partly Cloudy 74 23.1 54 12.1 50 50 W 18 30 29.99 1015 10 16 0.00 0.00
4:35 pm 16:35 Partly Cloudy 74 23.1 54 12.3 51 51 W 13 20 29.99 1015 10 16 0.00 0.00
4:55 pm 16:55 Partly Cloudy 73 23 53 11.9 50 50 WNW 12 19 29.99 1015 10 16 0.00 0.00
5:15 pm 17:15 Partly Cloudy 73 23 54 12.4 51 51 W 16 26 29.98 1015 10 16 0.00 0.00
5:35 pm 17:35 Sunny 73 22.9 55 12.6 52 52 W 10 17 29.98 1015 10 16 0.00 0.00
5:55 pm 17:55 Partly Cloudy 71 21.9 55 12.5 55 55 W 10 17 29.98 1015 10 16 0.00 0.00
6:15 pm 18:15 Sunny 73 22.6 55 12.9 54 54 W 12 19 29.98 1015 10 16 0.00 0.00
6:35 pm 18:35 Partly Cloudy 73 22.5 55 12.7 54 54 W 12 19 29.98 1015 10 16 0.00 0.00
6:55 pm 18:55 Partly Cloudy 72 22 55 13 57 57 W 12 19 29.98 1015 10 16 0.00 0.00
7:15 pm 19:15 Sunny 71 21.6 55 12.8 57 57 W 7 11 29.98 1015 10 16 0.00 0.00
7:35 pm 19:35 Sunny 70 21.1 56 13.2 61 61 W 6 9 29.98 1015 10 16 0.00 0.00
7:55 pm 19:55 Sunny 68 19.8 58 14.2 70 70 WSW 5 7 29.99 1015 10 16 0.00 0.00
8:15 pm 20:15 Sunny 65 18.3 60 15.4 83 83 WSW 5 7 29.99 1016 10 16 0.00 0.00
8:35 pm 20:35 Clear 64 17.5 59 15 85 85 WSW 5 7 30.00 1016 10 16 0.00 0.00
8:55 pm 20:55 Clear 62 16.6 59 15 90 90 SW 6 9 30.01 1016 10 16 0.00 0.00
9:15 pm 21:15 Clear 61 16.2 59 15 93 93 WSW 5 7 30.01 1016 10 16 0.00 0.00
9:35 pm 21:35 Clear 60 15.8 59 15.2 96 96 SW 5 7 30.02 1017 10 16 0.00 0.00
9:55 pm 21:55 Clear 60 15.5 59 15.1 97 97 WSW 5 7 30.02 1017 10 16 0.00 0.00
10:15 pm 22:15 Clear 59 15.1 59 15.1 100 100 Calm 30.02 1017 10 16 0.00 0.00
10:35 pm 22:35 Clear 59 15.2 59 15 99 99 WSW 3 6 30.03 1017 10 16 0.00 0.00
10:55 pm 22:55 Clear 59 14.9 58 14.6 98 98 WSW 3 6 30.03 1017 10 16 0.00 0.00
11:15 pm 23:15 Clear 59 14.8 58 14.5 98 98 Calm 30.03 1017 10 16 0.00 0.00
11:35 pm 23:35 Clear 58 14.2 58 14.2 100 100 Calm 30.04 1017 10 16 0.00 0.00
11:55 pm 23:55 Clear 56 13.6 56 13.6 100 100 SW 3 6 30.05 1018 10 16 0.00 0.00

Powered by AerisWeather